Flight Track Log - Related Links

Times and Time Zones

All times are in EDT time to prevent confusion due to time zone crossing. See the CJT574 flight status page for this flight to view local times or setup timezone preferences in your user account.

Time Position Orientation Groundspeed Altitude Reporting Facility
EDT Latitude Longitude Course Direction KTS MPH feet Rate Location/Type
Thu 02:05:34 AM 49.9333 -97.3000 316° Northwest 200 230 2,800  Level Winnipeg Center
Thu 02:06:34 AM 49.9000 -97.3833 238° Southwest 260 299 3,800 1,800 Climbing Winnipeg Center
Thu 02:07:34 AM 49.8500 -97.3333 147° Southeast 290 334 6,400 2,300 Climbing Winnipeg Center
Thu 02:08:34 AM 49.8167 -97.2000 111° Southeast 300 345 8,400 1,950 Climbing Winnipeg Center
Thu 02:09:34 AM 49.7833 -97.0667 111° Southeast 310 357 10,300 1,450 Climbing Winnipeg Center
Thu 02:10:34 AM 49.7500 -96.9333 111° Southeast 350 403 11,300 1,300 Climbing Winnipeg Center
Thu 02:11:34 AM 49.7000 -96.7833 117° Southeast 380 437 12,900 1,500 Climbing Winnipeg Center
Thu 02:12:34 AM 49.6500 -96.6333 117° Southeast 390 449 14,300 1,550 Climbing Winnipeg Center
Thu 02:13:34 AM 49.6167 -96.4833 109° East 410 472 16,000 1,550 Climbing Winnipeg Center
Thu 02:14:34 AM 49.5667 -96.3167 115° Southeast 410 472 17,400 1,500 Climbing Winnipeg Center
Thu 02:15:34 AM 49.5000 -96.1500 122° Southeast 420 483 19,000 1,500 Climbing Winnipeg Center
Thu 02:16:34 AM 49.4667 -95.9833 107° East 430 495 20,400 1,350 Climbing Winnipeg Center
Thu 02:17:34 AM 49.4167 -95.7833 111° Southeast 440 506 21,700 1,200 Climbing Winnipeg Center
Thu 02:18:34 AM 49.3667 -95.6333 117° Southeast 450 518 22,800 1,200 Climbing Winnipeg Center
Thu 02:19:34 AM 49.3167 -95.4500 113° Southeast 450 518 24,100 1,200 Climbing Winnipeg Center
Thu 02:20:34 AM 49.2667 -95.2667 113° Southeast 470 541 25,200 1,100 Climbing Winnipeg Center
Thu 02:21:34 AM 49.2167 -95.1000 115° Southeast 470 541 26,300 1,100 Climbing Winnipeg Center
Thu 02:22:34 AM 49.1500 -94.9000 117° Southeast 480 552 27,400 1,000 Climbing Winnipeg Center
Thu 02:23:34 AM 49.1000 -94.7167 113° Southeast 490 564 28,300 1,100 Climbing Winnipeg Center
Thu 02:24:34 AM 49.0333 -94.5167 117° Southeast 490 564 29,600 1,250 Climbing Winnipeg Center
Thu 02:25:34 AM 48.9667 -94.3500 121° Southeast 490 564 30,800 1,000 Climbing Winnipeg Center
Thu 02:26:34 AM 48.9000 -94.1667 119° Southeast 490 564 31,600 900 Climbing Winnipeg Center
Thu 02:27:34 AM 48.8167 -93.9667 122° Southeast 490 564 32,600 700 Climbing Winnipeg Center
Thu 02:28:34 AM 48.7500 -93.8000 121° Southeast 500 575 33,000 200 Climbing Winnipeg Center
Thu 02:29:34 AM 48.6667 -93.6000 122° Southeast 510 587 33,000  Level Winnipeg Center
Thu 02:30:34 AM 48.6167 -93.4333 114° Southeast 510 587 33,000  Level Winnipeg Center
Thu 02:31:04 AM 48.6058 -93.3478 101° East 515 593 33,000  Level Minneapolis Center
Thu 02:32:04 AM 48.5450 -93.1550 115° Southeast 512 589 33,000  Level Minneapolis Center
Thu 02:33:04 AM 48.4858 -92.9636 115° Southeast 507 583 33,000  Level Minneapolis Center
Thu 02:34:05 AM 48.4256 -92.7731 115° Southeast 505 581 33,000  Level Minneapolis Center
Thu 02:35:05 AM 48.3656 -92.5847 116° Southeast 503 579 33,000  Level Minneapolis Center
Thu 02:36:06 AM 48.3031 -92.3922 116° Southeast 501 577 33,000  Level Minneapolis Center
Thu 02:37:06 AM 48.2428 -92.2072 116° Southeast 502 578 33,000  Level Minneapolis Center
Thu 02:38:06 AM 48.1819 -92.0194 116° Southeast 502 578 33,000  Level Minneapolis Center
Thu 02:39:07 AM 48.1211 -91.8344 116° Southeast 500 575 33,000  Level Minneapolis Center
Thu 02:40:07 AM 48.0594 -91.6511 117° Southeast 497 572 33,000  Level Minneapolis Center
Thu 02:41:08 AM 47.9986 -91.4681 116° Southeast 495 570 33,000  Level Minneapolis Center
Thu 02:42:08 AM 47.9369 -91.2853 117° Southeast 494 568 33,000  Level Minneapolis Center
Thu 02:43:08 AM 47.8758 -91.1061 117° Southeast 491 565 33,000  Level Minneapolis Center
Thu 02:44:09 AM 47.8142 -90.9258 117° Southeast 490 564 33,000  Level Minneapolis Center
Thu 02:45:09 AM 47.7533 -90.7489 117° Southeast 487 560 33,000  Level Minneapolis Center
Thu 02:46:09 AM 47.6931 -90.5714 117° Southeast 485 558 33,000  Level Minneapolis Center
Thu 02:47:10 AM 47.6311 -90.3944 117° Southeast 484 557 33,000  Level Minneapolis Center
Thu 02:48:10 AM 47.5683 -90.2192 118° Southeast 480 552 33,000  Level Minneapolis Center
Thu 02:49:10 AM 47.5044 -90.0456 119° Southeast 479 551 33,000  Level Minneapolis Center
Thu 02:50:11 AM 47.4417 -89.8667 117° Southeast 484 557 33,000  Level Minneapolis Center
Thu 02:51:11 AM 47.3794 -89.6883 117° Southeast 487 560 33,000  Level Minneapolis Center
Thu 02:52:12 AM 47.3158 -89.5131 118° Southeast 485 558 33,000  Level Minneapolis Center
Thu 02:53:12 AM 47.2514 -89.3347 118° Southeast 490 564 33,000  Level Minneapolis Center
Thu 02:54:12 AM 47.1858 -89.1583 119° Southeast 491 565 33,000  Level Minneapolis Center
Thu 02:55:13 AM 47.1206 -88.9778 118° Southeast 496 571 33,000  Level Minneapolis Center
Thu 02:56:13 AM 47.0542 -88.7981 118° Southeast 498 573 33,000  Level Minneapolis Center
Thu 02:57:13 AM 46.9864 -88.6178 119° Southeast 502 578 33,000  Level Minneapolis Center
Thu 02:58:14 AM 46.9189 -88.4381 119° Southeast 502 578 33,000  Level Minneapolis Center
Thu 02:59:14 AM 46.8503 -88.2569 119° Southeast 506 582 33,000  Level Minneapolis Center
Thu 03:00:16 AM 46.7817 -88.0767 119° Southeast 507 583 33,000  Level Minneapolis Center
Thu 03:01:16 AM 46.7122 -87.8958 119° Southeast 509 586 33,000  Level Minneapolis Center
Thu 03:02:16 AM 46.6419 -87.7147 119° Southeast 512 589 33,000  Level Minneapolis Center
Thu 03:03:17 AM 46.5769 -87.5461 119° Southeast 514 592 33,000  Level Minneapolis Center
Thu 03:04:17 AM 46.5067 -87.3658 119° Southeast 515 593 33,000  Level Minneapolis Center
Thu 03:05:17 AM 46.4350 -87.1842 120° Southeast 519 597 33,000  Level Minneapolis Center
Thu 03:06:18 AM 46.3486 -86.9683 120° Southeast 516 594 33,000  Level Minneapolis Center
Thu 03:07:18 AM 46.2775 -86.7897 120° Southeast 514 592 33,000  Level Minneapolis Center
Thu 03:08:18 AM 46.2047 -86.6081 120° Southeast 520 598 33,000  Level Minneapolis Center
Thu 03:09:19 AM 46.1464 -86.4636 120° Southeast 521 600 33,000  Level Minneapolis Center
Thu 03:10:19 AM 46.0586 -86.2467 120° Southeast 521 600 33,000  Level Minneapolis Center
Thu 03:11:19 AM 45.9989 -86.1019 121° Southeast 525 604 33,000  Level Minneapolis Center
Thu 03:12:20 AM 45.9100 -85.8853 120° Southeast 524 603 33,000  Level Minneapolis Center
Thu 03:13:20 AM 45.8344 -85.7039 121° Southeast 526 605 33,000  Level Minneapolis Center
Thu 03:14:20 AM 45.7581 -85.5233 121° Southeast 528 608 33,000  Level Minneapolis Center
Thu 03:15:21 AM 45.6825 -85.3411 121° Southeast 531 611 33,000  Level Minneapolis Center
Thu 03:16:21 AM 45.6056 -85.1619 121° Southeast 529 609 33,000  Level Minneapolis Center
Thu 03:17:21 AM 45.5294 -84.9814 121° Southeast 530 610 33,000  Level Minneapolis Center
Thu 03:18:22 AM 45.4519 -84.8000 121° Southeast 532 612 33,000  Level Minneapolis Center
Thu 03:19:22 AM 45.3733 -84.6203 122° Southeast 533 613 33,000  Level Minneapolis Center
Thu 03:20:22 AM 45.2958 -84.4417 122° Southeast 532 612 33,000  Level Minneapolis Center
Thu 03:21:23 AM 45.2181 -84.2625 122° Southeast 532 612 33,000  Level Minneapolis Center
Thu 03:22:23 AM 45.1406 -84.0858 122° Southeast 531 611 33,000  Level Minneapolis Center
Thu 03:23:23 AM 45.0611 -83.9092 122° Southeast 530 610 33,000  Level Minneapolis Center
Thu 03:24:24 AM 44.9831 -83.7314 122° Southeast 532 612 33,000  Level Minneapolis Center
Thu 03:25:24 AM 44.9056 -83.5558 122° Southeast 530 610 33,000  Level Minneapolis Center
Thu 03:26:24 AM 44.8267 -83.3808 122° Southeast 530 610 33,000  Level Minneapolis Center
Thu 03:27:25 AM 44.7461 -83.2056 123° Southeast 531 611 33,000  Level Minneapolis Center
Thu 03:28:25 AM 44.6694 -83.0328 122° Southeast 527 606 33,000  Level Minneapolis Center
Thu 03:29:25 AM 44.5897 -82.8622 123° Southeast 524 603 33,000  Level Minneapolis Center
Thu 03:30:26 AM 44.5114 -82.6922 123° Southeast 522 601 33,000  Level Minneapolis Center
Thu 03:31:26 AM 44.4336 -82.5231 123° Southeast 519 597 33,000  Level Minneapolis Center
Thu 03:32:03 AM 44.3667 -82.3833 124° Southeast 520 598 33,000  Level Toronto Center
Thu 03:33:03 AM 44.2833 -82.2333 128° Southeast 520 598 33,000  Level Toronto Center
Thu 03:34:03 AM 44.2000 -82.0833 128° Southeast 520 598 33,000  Level Toronto Center
Thu 03:35:03 AM 44.1333 -81.9167 119° Southeast 520 598 33,000 -1,000 Level Toronto Center
Thu 03:36:03 AM 44.0500 -81.7500 125° Southeast 510 587 31,000 -2,600 Descending Toronto Center
Thu 03:37:03 AM 43.9667 -81.5833 125° Southeast 510 587 27,800 -3,000 Descending Toronto Center
Thu 03:38:03 AM 43.8833 -81.4333 128° Southeast 500 575 25,000 -2,950 Descending Toronto Center
Thu 03:39:03 AM 43.8000 -81.2667 125° Southeast 480 552 21,900 -2,800 Descending Toronto Center
Thu 03:40:03 AM 43.7333 -81.1333 125° Southeast 460 529 19,400 -2,400 Descending Toronto Center
Thu 03:41:03 AM 43.6667 -81.0000 125° Southeast 440 506 17,100 -2,400 Descending Toronto Center
Thu 03:42:03 AM 43.5833 -80.8833 135° Southeast 410 472 14,600 -2,350 Descending Toronto Center
Thu 03:43:03 AM 43.5500 -80.7667 111° Southeast 400 460 12,400 -1,700 Descending Toronto Center
Thu 03:44:03 AM 43.4833 -80.6167 121° Southeast 370 426 11,200 -1,200 Descending Toronto Center
Thu 03:45:03 AM 43.4333 -80.5333 130° Southeast 330 380 10,000 -1,300 Descending Toronto Center
Thu 03:46:03 AM 43.3833 -80.4333 125° Southeast 310 357 8,600 -1,450 Descending Toronto Center
Thu 03:47:03 AM 43.3333 -80.3500 130° Southeast 300 345 7,100 -1,200 Descending Toronto Center
Thu 03:48:03 AM 43.2833 -80.2500 124° Southeast 280 322 6,200 -900 Descending Toronto Center
Thu 03:49:03 AM 43.2500 -80.1667 119° Southeast 260 299 5,300 -600 Descending Toronto Center
Thu 03:50:03 AM 43.2333 -80.0667 103° East 260 299 5,000 -550 Descending Toronto Center
Thu 03:51:03 AM 43.2167 -79.9833 105° East 260 299 4,200 -750 Descending Toronto Center
Thu 03:52:03 AM 43.2000 -79.8833 103° East 240 276 3,500 -600 Descending Toronto Center
Thu 03:53:03 AM 43.1667 -79.8167 124° Southeast 250 288 3,000 -250 Descending Toronto Center
Thu 03:54:03 AM 43.1500 -79.7167 103° East 230 265 3,000  Level Toronto Center
Thu 03:55:03 AM 43.1500 -79.6500 90° East 200 230 3,000  Level Toronto Center
Thu 03:56:03 AM 43.1167 -79.6833 216° Southwest 190 219 3,000  Level Toronto Center
Thu 03:57:03 AM 43.1333 -79.7167 304° West 170 196 3,000 -150 Level Toronto Center
Thu 03:58:03 AM 43.1333 -79.8000 270° West 160 184 2,700 -650 Descending Toronto Center
Thu 03:59:03 AM 43.1500 -79.8333 304° West 130 150 1,700 -850 Descending Toronto Center
Thu 04:00:03 AM 43.1667 -79.8833 295° West 130 150 1,000 -700 Descending Toronto Center

Login

Don't have an account? Register now (free) for customized features, flight alerts, and more!